GW1961 Weather Reports


Display with metric or nautical units.
time (UTC)temp
F
wind
direction
speed
MPH
gust
MPH
rain 1hr
in
rain 24hr
in
rain mn
in
humidity
%
barometer
mb
20260506155525 54 316 1.0 5.0 0.00 0.00 0.00 82 1015.3
20260506155022 54 267 1.0 4.0 0.00 0.00 0.00 82 1015.4
20260506154548 54 265 1.0 4.0 0.00 0.00 0.00 83 1015.4
20260506154023 54 0 0.0 4.0 0.00 0.00 0.00 83 1015.3
20260506153522 54 302 2.0 4.0 0.00 0.00 0.00 84 1015.3
20260506153044 54 0 0.0 5.0 0.00 0.00 0.00 85 1015.3
20260506152521 54 0 1.0 6.0 0.00 0.00 0.00 86 1015.3
20260506152023 53 318 3.0 6.0 0.00 0.00 0.00 86 1015.4
20260506151544 53 318 1.0 4.0 0.00 0.00 0.00 87 1015.5
20260506151021 53 281 0.0 2.0 0.00 0.00 0.00 88 1015.4
20260506150522 53 0 0.0 0.0 0.00 0.00 0.00 89 1015.4
20260506150039 53 0 0.0 0.0 0.00 0.00 0.00 90 1015.5
20260506145524 53 0 0.0 0.0 0.00 0.00 0.00 91 1015.5
20260506145020 53 0 0.0 0.0 0.00 0.00 0.00 91 1015.4
20260506144558 53 0 0.0 0.0 0.00 0.00 0.00 92 1015.5
20260506144024 53 0 0.0 0.0 0.00 0.00 0.00 92 1015.3
20260506143520 52 0 0.0 0.0 0.00 0.00 0.00 92 1015.3
20260506143045 52 0 0.0 0.0 0.00 0.00 0.00 92 1015.3
20260506142520 52 0 0.0 0.0 0.00 0.00 0.00 92 1015.2
20260506142024 52 0 0.0 0.0 0.00 0.00 0.00 93 1015.2
20260506141543 52 0 0.0 0.0 0.00 0.00 0.00 93 1015.1
20260506141021 52 0 0.0 0.0 0.00 0.00 0.00 93 1015.0
20260506140519 52 0 0.0 0.0 0.00 0.00 0.00 93 1015.0
20260506140045 52 0 0.0 0.0 0.00 0.00 0.00 93 1014.9
20260506135517 52 0 0.0 0.0 0.00 0.00 0.00 93 1015.0
20260506135017 51 0 0.0 0.0 0.00 0.00 0.00 93 1014.9
20260506134538 51 0 0.0 0.0 0.00 0.00 0.00 93 1014.8
20260506134018 51 0 0.0 0.0 0.00 0.00 0.00 93 1014.9
20260506133519 51 0 0.0 0.0 0.00 0.00 0.00 93 1014.7
20260506133035 51 0 0.0 0.0 0.00 0.00 0.00 93 1014.8
20260506132520 51 0 0.0 0.0 0.00 0.00 0.00 93 1014.8
20260506132020 51 0 0.0 0.0 0.00 0.00 0.00 93 1014.7
20260506131536 51 0 0.0 0.0 0.00 0.00 0.00 93 1014.6
20260506131017 51 0 0.0 0.0 0.00 0.00 0.00 93 1014.6
20260506130520 51 0 0.0 0.0 0.00 0.00 0.00 93 1014.5
20260506130034 51 0 0.0 0.0 0.00 0.00 0.00 93 1014.5
20260506125517 51 0 0.0 0.0 0.00 0.00 0.00 93 1014.6
20260506125019 51 0 0.0 0.0 0.00 0.00 0.00 93 1014.6
20260506124543 51 0 0.0 0.0 0.00 0.00 0.00 93 1014.5
20260506124017 51 0 0.0 0.0 0.00 0.00 0.00 93 1014.5
20260506123517 51 0 0.0 0.0 0.00 0.00 0.00 93 1014.5
20260506123041 51 0 0.0 0.0 0.00 0.00 0.00 93 1014.4
20260506122516 51 0 0.0 0.0 0.00 0.00 0.00 93 1014.4
20260506122018 51 0 0.0 0.0 0.00 0.00 0.00 93 1014.3
20260506121537 51 0 0.0 0.0 0.00 0.00 0.00 93 1014.3
20260506121020 51 0 0.0 0.0 0.00 0.00 0.00 93 1014.3
20260506120517 51 0 0.0 0.0 0.00 0.00 0.00 93 1014.3
20260506120042 51 0 0.0 0.0 0.00 0.00 0.00 93 1014.3
20260506115520 51 0 0.0 0.0 0.00 0.00 0.00 93 1014.2
20260506115019 51 0 0.0 0.0 0.00 0.00 0.00 93 1014.3
20260506114534 51 0 0.0 0.0 0.00 0.00 0.00 93 1014.2
20260506114019 51 0 0.0 0.0 0.00 0.00 0.00 93 1014.2
20260506113519 51 0 0.0 0.0 0.00 0.00 0.00 93 1014.1
20260506113043 51 0 0.0 0.0 0.00 0.00 0.00 93 1014.2
20260506112521 51 0 0.0 0.0 0.00 0.00 0.00 93 1014.2
20260506112022 51 0 0.0 0.0 0.00 0.00 0.00 93 1014.0
20260506111541 51 0 0.0 0.0 0.00 0.00 0.00 93 1014.0
20260506111021 51 0 0.0 0.0 0.00 0.00 0.00 92 1013.9
20260506110520 51 0 0.0 0.0 0.00 0.00 0.00 92 1013.8
20260506110035 51 0 0.0 0.0 0.00 0.00 0.00 93 1014.0
20260506105522 51 0 0.0 0.0 0.00 0.00 0.00 92 1013.8
20260506105022 52 0 0.0 0.0 0.00 0.00 0.00 93 1013.8
20260506104538 52 0 0.0 0.0 0.00 0.00 0.00 93 1013.7
20260506104023 52 0 0.0 0.0 0.00 0.00 0.00 92 1013.7
20260506103521 51 0 0.0 0.0 0.00 0.00 0.00 93 1013.8
20260506103051 51 0 0.0 0.0 0.00 0.00 0.00 92 1013.8
20260506102521 51 0 0.0 0.0 0.00 0.00 0.00 92 1013.9
20260506102021 51 0 0.0 0.0 0.00 0.00 0.00 92 1013.9
20260506101544 51 0 0.0 0.0 0.00 0.00 0.00 92 1013.8
20260506101024 51 0 0.0 0.0 0.00 0.00 0.00 92 1013.7
20260506100524 51 0 0.0 0.0 0.00 0.00 0.00 92 1013.8
20260506100041 51 0 0.0 0.0 0.00 0.00 0.00 92 1013.7
20260506095521 51 0 0.0 0.0 0.00 0.00 0.00 92 1013.7
20260506095020 51 0 0.0 0.0 0.00 0.00 0.00 92 1013.7
20260506094539 51 0 0.0 0.0 0.00 0.00 0.00 92 1013.7
20260506094021 51 0 0.0 0.0 0.00 0.00 0.00 92 1013.7
20260506093523 51 0 0.0 0.0 0.00 0.00 0.00 92 1013.8
20260506093038 51 0 0.0 0.0 0.00 0.00 0.00 92 1013.8
20260506092521 51 0 0.0 0.0 0.00 0.00 0.00 91 1013.8
20260506092022 52 0 0.0 0.0 0.00 0.00 0.00 91 1013.7
20260506091544 52 0 0.0 0.0 0.00 0.00 0.00 91 1013.7
20260506091022 52 0 0.0 0.0 0.00 0.00 0.00 91 1013.8
20260506090522 52 0 0.0 0.0 0.00 0.00 0.00 91 1013.7
20260506090049 52 0 0.0 0.0 0.00 0.00 0.00 91 1013.6
20260506085522 52 0 0.0 0.0 0.00 0.00 0.00 91 1013.6
20260506085022 52 0 0.0 0.0 0.00 0.00 0.00 91 1013.6
20260506084559 52 0 0.0 0.0 0.00 0.00 0.00 91 1013.7
20260506084021 52 0 0.0 0.0 0.00 0.00 0.00 91 1013.7
20260506083521 52 0 0.0 0.0 0.00 0.00 0.00 91 1013.8
20260506083042 52 0 0.0 0.0 0.00 0.00 0.00 91 1013.7
20260506082521 52 0 0.0 0.0 0.00 0.00 0.00 91 1013.7
20260506082022 52 0 0.0 0.0 0.00 0.00 0.00 91 1013.7
20260506081542 52 0 0.0 0.0 0.00 0.00 0.00 91 1013.6
20260506081022 52 0 0.0 0.0 0.00 0.00 0.00 92 1013.7
20260506080521 52 0 0.0 0.0 0.00 0.00 0.00 92 1013.5
20260506073521 52 0 0.0 0.0 0.00 0.02 0.00 92 1013.3
20260506073053 52 0 0.0 0.0 0.00 0.02 0.00 93 1013.3
20260506072522 51 0 0.0 0.0 0.00 0.02 0.00 92 1013.2
20260506072021 51 0 0.0 0.0 0.00 0.02 0.00 92 1013.3
20260506071544 51 0 0.0 0.0 0.00 0.02 0.00 92 1013.3
20260506071024 51 0 0.0 0.0 0.00 0.02 0.00 92 1013.3
20260506070521 52 0 0.0 0.0 0.00 0.02 0.00 92 1013.2
20260506062021 51 0 0.0 0.0 0.00 0.02 0.02 92 1013.0
20260506061555 51 0 0.0 0.0 0.00 0.02 0.02 92 1012.8
20260506061022 52 0 0.0 0.0 0.00 0.02 0.02 92 1012.8
20260506060527 52 0 0.0 0.0 0.00 0.02 0.02 92 1012.7
20260506051020 52 0 0.0 0.0 0.00 0.03 0.02 91 1012.4
20260506050529 52 0 0.0 0.0 0.00 0.03 0.02 91 1012.3
20260506050104 52 0 0.0 0.0 0.00 0.03 0.02 91 1012.3
20260506045023 52 0 0.0 0.0 0.00 0.07 0.02 91 1012.2
20260506044547 52 0 0.0 0.0 0.00 0.07 0.02 91 1012.1
20260506044021 52 0 0.0 0.0 0.00 0.07 0.02 91 1012.0
20260506043522 52 0 0.0 0.0 0.00 0.07 0.02 91 1012.0
20260506043042 52 0 0.0 0.0 0.00 0.07 0.02 90 1012.1
20260506042521 52 0 0.0 0.0 0.00 0.07 0.02 90 1012.0
20260506042020 52 0 0.0 0.0 0.00 0.07 0.02 90 1012.1
20260506041535 52 0 0.0 0.0 0.00 0.07 0.02 90 1012.0
20260506041020 52 0 0.0 0.0 0.00 0.07 0.02 90 1012.0
20260506040521 52 0 0.0 0.0 0.00 0.07 0.02 90 1011.8
20260506040047 52 0 0.0 0.0 0.00 0.07 0.02 90 1011.8
20260506035523 52 0 0.0 0.0 0.00 0.23 0.02 90 1011.9
20260506035024 52 0 0.0 0.0 0.00 0.23 0.02 90 1011.7
20260506034548 52 0 0.0 0.0 0.00 0.23 0.02 89 1011.5
20260506034343 52 0 0.0 0.0 0.00 0.23 0.02 89 1011.4